Cold Bay, AK

7:57 AM AKST on December 12, 2017 (GMT -0900)
Cold Bay

Weather History for PACD - November, 2012

Change the Weather History Date:

Friday, November 30, 2012

  Actual Average Record
Temperature  
Mean Temperature 29 °F 33 °F  
Max Temperature 30 °F 37 °F 51 °F (1954)
Min Temperature 28 °F 28 °F 8 °F (1945)
Degree Days  
Heating Degree Days 36 32  
Month to date heating degree days 1023 913  
Since 1 July heating degree days 3289 3020  
Cooling Degree Days 0 0  
Month to date cooling degree days 0 0  
Year to date cooling degree days 0 0  
Moisture  
Dew Point 23 °F    
Average Humidity 77    
Maximum Humidity 82    
Minimum Humidity 65    
Precipitation  
Precipitation 0.00 in 0.16 in 2.59 in (2007)
Month to date precipitation 4.51 4.98  
Year to date precipitation 40.39 37.21  
Snow  
Snow 0.00 in 0.40 in 8.60 in (1964)
Month to date snowfall 8.0 10.2  
Since 1 July snowfall 9.0 12.6  
Since 1 September snowfall 9.0 12.6  
Snow Depth 2.00 in    
Sea Level Pressure  
Sea Level Pressure 29.92 in    
Wind  
Wind Speed 0 mph (NNW)    
Max Wind Speed 25 mph    
Max Gust Speed 30 mph    
Visibility 10 miles    
Events      
T = Trace of Precipitation, MM = Missing Value Source: NWS Daily Summary

Daily Weather History Graph

Daily Weather History Graph

Search for Another Location

Airport or City:

Trip Planner

Search our weather history database for the weather conditions in past years. The results will help you decide how hot, cold, wet, or windy it might be!

Date:

Astronomy

Nov. 30, 2012 Rise Set
Actual Time 9:52 AM AKST 5:26 PM AKST
Civil Twilight 9:08 AM AKST 6:10 PM AKST
Nautical Twilight 8:21 AM AKST 6:57 PM AKST
Astronomical Twilight 7:37 AM AKST 7:41 PM AKST
Moon 7:35 PM AKST (11/30) 11:31 AM AKST (11/30)
Length of Visible Light 9h 02m
Length of Day
7h 33m
Waning Gibbous, 95% of the Moon is Illuminated
Nov 30
Waning Gibbous
Dec 6
Last Quarter
Dec 12
New
Dec 19
First Quarter
Dec 28
Full

Hourly Weather History & Observations

Time (AKST) Temp. Windchill Dew Point Humidity Pressure Visibility Wind Dir Wind Speed Gust Speed Precip Events Conditions
12:53 AM 28.9 °F 15.4 °F 21.9 °F 75% 29.84 in 10.0 mi NNW 21.9 mph - N/A   Overcast
1:53 AM 28.9 °F 16.1 °F 21.9 °F 75% 29.83 in 10.0 mi NNW 19.6 mph - N/A   Overcast
3:53 AM 28.9 °F 16.9 °F 23.0 °F 78% 29.83 in 10.0 mi North 17.3 mph 24.2 mph N/A   Overcast
4:53 AM 28.9 °F 16.1 °F 21.9 °F 75% 29.85 in 10.0 mi North 19.6 mph - N/A   Overcast
5:53 AM 28.9 °F 16.9 °F 23.0 °F 78% 29.86 in 10.0 mi North 17.3 mph - N/A   Overcast
6:53 AM 28.9 °F 17.7 °F 23.0 °F 78% 29.86 in 10.0 mi North 15.0 mph - N/A   Overcast
7:53 AM 30.0 °F 19.1 °F 24.1 °F 79% 29.87 in 10.0 mi North 15.0 mph - N/A   Overcast
8:53 AM 28.0 °F 17.5 °F 23.0 °F 81% 29.89 in 10.0 mi North 12.7 mph - N/A   Mostly Cloudy
9:53 AM 30.0 °F 20.0 °F 24.1 °F 79% 29.91 in 10.0 mi NNW 12.7 mph - N/A   Overcast
10:53 AM 28.9 °F 17.7 °F 24.1 °F 82% 29.93 in 10.0 mi NNW 15.0 mph - N/A   Overcast
11:53 AM 30.0 °F 19.5 °F 24.1 °F 79% 29.95 in 10.0 mi NNW 13.8 mph - N/A   Overcast
12:53 PM 30.0 °F 18.7 °F 24.1 °F 79% 29.96 in 10.0 mi NNW 16.1 mph - N/A   Overcast
1:53 PM 30.0 °F 18.3 °F 24.1 °F 79% 29.95 in 10.0 mi NNW 17.3 mph - N/A   Overcast
2:53 PM 30.0 °F 17.9 °F 23.0 °F 75% 29.94 in 10.0 mi NNW 18.4 mph - N/A   Overcast
3:53 PM 28.9 °F 17.7 °F 23.0 °F 78% 29.94 in 10.0 mi NNW 15.0 mph - N/A   Mostly Cloudy
4:53 PM 28.9 °F 18.6 °F 24.1 °F 82% 29.97 in 10.0 mi NNW 12.7 mph - N/A   Overcast
5:53 PM 30.0 °F 20.0 °F 24.1 °F 79% 29.97 in 10.0 mi NW 12.7 mph - N/A   Overcast
6:53 PM 30.0 °F 20.5 °F 24.1 °F 79% 29.98 in 10.0 mi NW 11.5 mph - N/A   Overcast
7:53 PM 30.0 °F 19.5 °F 24.1 °F 79% 29.99 in 10.0 mi NW 13.8 mph - N/A   Overcast
8:53 PM 30.0 °F 18.7 °F 24.1 °F 79% 29.99 in 10.0 mi NW 16.1 mph - N/A   Overcast
9:53 PM 30.0 °F 19.5 °F 24.1 °F 79% 29.99 in 10.0 mi NNW 13.8 mph - N/A   Overcast
10:53 PM 30.0 °F 20.0 °F 25.0 °F 82% 30.00 in 10.0 mi NW 12.7 mph - N/A   Overcast
11:53 PM 28.9 °F 18.6 °F 24.1 °F 82% 30.00 in 10.0 mi NW 12.7 mph - N/A   Overcast